Regional Weather Roundup
Issued by NWS Little Rock, AR

Home | Current Version | Previous Version | Text Only | Print | Product List | Glossary On
Versions: 1 2 3 4 5 6 7 8 9 10 11 12 13 14 15 16 17 18 19 20 21 22 23 24 25 26 27 28 29 30 31 32
000
ASUS44 KLZK 300205
RWRLZK

WEATHER ROUNDUP FOR ARKANSAS
NATIONAL WEATHER SERVICE LITTLE ROCK AR
900 PM CDT MON MAY 29 2017

NOTE: "FAIR" INDICATES FEW OR NO CLOUDS BELOW 12,000 FEET WITH NO
SIGNIFICANT WEATHER AND/OR OBSTRUCTIONS TO VISIBILITY.

ARZ001-003-010-029-300300-
NORTHWEST ARKANSAS

CITY           SKY/WX    TMP DP  RH WIND       PRES   REMARKS
FAYETTEVILLE   CLEAR     69  63  81 S5        30.02R
FORT SMITH     CLEAR     77  55  46 S5        29.99R
HARRISON       CLEAR     72  57  59 SW3       30.02R
BENTONVILLE    PTCLDY    73  57  56 CALM      30.02R
ROGERS         CLEAR     75  58  55 S5        30.02R
SILOAM SPGS    MOCLDY    73  55  53 S5        30.01R
HIGHFILL       PTCLDY    72  60  66 SW5       30.02R
SPRINGDALE     CLEAR     77  59  53 S5        30.03R
$$

ARZ004-005-016-300300-
NORTH CENTRAL ARKANSAS

CITY           SKY/WX    TMP DP  RH WIND       PRES   REMARKS
BATESVILLE     CLEAR     75  59  57 S3        30.00R
FLIPPIN        CLEAR     73  57  56 CALM      29.97S
MTN HOME       CLEAR     72  56  57 CALM      29.99R
$$

ARZ040-041-300300-
WEST CENTRAL ARKANSAS

CITY           SKY/WX    TMP DP  RH WIND       PRES   REMARKS
MENA           CLEAR     70  68  94 CALM      30.04R
MOUNT IDA      CLEAR     70  63  78 CALM      30.01R
$$

ARZ009-017-025-026-028-300300-
NORTHEAST ARKANSAS

CITY           SKY/WX    TMP DP  RH WIND       PRES   REMARKS
JONESBORO      CLOUDY    75  61  61 SW6       29.98S
NEWPORT        CLEAR     73  65  75 S7        29.99S
WALNUT RIDGE   CLEAR     73  59  60 S8        29.98R
BLYTHEVILLE    CLEAR     74  63  68 SW6       29.99R
$$

ARZ022-023-033-042-044-300300-
CENTRAL ARKANSAS

CITY           SKY/WX    TMP DP  RH WIND       PRES   REMARKS
LITTLE ROCK    PTCLDY    74  63  68 CALM      30.01R
N LITTLE ROCK    N/A     72  61  68 CALM      30.00S
JACKSONVILLE   CLEAR     72  67  84 CALM      30.00S
CONWAY           N/A     73  68  83 S6        29.99R
SEARCY         CLEAR     70  67  90 CALM      30.02R
HOT SPRINGS    CLEAR     73  64  73 CALM      30.02R
RUSSELLVILLE   CLEAR     71  62  73 CALM      30.00R
$$

ARZ036-300300-
EAST ARKANSAS

CITY           SKY/WX    TMP DP  RH WIND       PRES   REMARKS
WEST MEMPHIS   PTCLDY    73  64  73 SW5       29.99R
$$

ARZ050-053-066-070-073-300300-
SOUTHWEST ARKANSAS

CITY           SKY/WX    TMP DP  RH WIND       PRES   REMARKS
ARKADELPHIA    FAIR      72  70  93 CALM      30.01S
CAMDEN         CLOUDY    72  68  88 CALM      30.02R
TEXARKANA      CLEAR     67  63  87 CALM      30.02R
EL DORADO      CLOUDY    73  71  93 CALM      30.02R
DE QUEEN       CLEAR     71  67  87 CALM      29.99S
$$

ARZ056-057-069-300300-
SOUTHEAST ARKANSAS

CITY           SKY/WX    TMP DP  RH WIND       PRES   REMARKS
PINE BLUFF     HVY RAIN  75  67  76 CALM      30.01R
STUTTGART      PTCLDY    77  59  53 S7        30.02R
MONTICELLO     CLOUDY    74  70  87 CALM      30.02R

$$






USA.gov is the U.S. government's official web portal to all federal, state and local government web resources and services.